Time,TemperatureF,DewpointF,PressureIn,WindDirection,WindDirectionDegrees,WindSpeedMPH,WindSpeedGustMPH,Humidity,HourlyPrecipIn,Conditions,Clouds,dailyrainin,SoftwareType,DateUTC
2013-01-06 00:09:00,15.3,12.0,30.18,NNW,328,0.0,1.0,85,0.00,,,0.00,weatherlink.com 1.10,2013-01-06 05:09:00,
2013-01-06 00:23:00,15.5,11.0,30.18,NNW,328,0.0,1.0,83,0.00,,,0.00,weatherlink.com 1.10,2013-01-06 05:23:00,
2013-01-06 00:38:00,14.3,10.0,30.16,NNW,328,0.0,1.0,84,0.00,,,0.00,weatherlink.com 1.10,2013-01-06 05:38:00,
2013-01-06 00:53:00,13.9,10.0,30.15,NNW,328,0.0,0.0,85,0.00,,,0.00,weatherlink.com 1.10,2013-01-06 05:53:00,
2013-01-06 01:08:00,13.7,10.0,30.15,WSW,239,0.0,1.0,84,0.00,,,0.00,weatherlink.com 1.10,2013-01-06 06:08:00,
2013-01-06 01:23:00,13.3,10.0,30.14,NNE,23,0.0,1.0,86,0.00,,,0.00,weatherlink.com 1.10,2013-01-06 06:23:00,
2013-01-06 01:38:00,14.4,11.0,30.14,WNW,294,0.0,1.0,87,0.00,,,0.00,weatherlink.com 1.10,2013-01-06 06:38:00,
2013-01-06 01:53:00,14.5,11.0,30.13,West,275,0.0,1.0,86,0.00,,,0.00,weatherlink.com 1.10,2013-01-06 06:53:00,
2013-01-06 02:08:00,15.0,11.0,30.12,West,272,0.0,1.0,85,0.00,,,0.00,weatherlink.com 1.10,2013-01-06 07:08:00,
2013-01-06 02:23:00,14.8,11.0,30.12,West,261,0.0,0.0,85,0.00,,,0.00,weatherlink.com 1.10,2013-01-06 07:23:00,
2013-01-06 02:38:00,15.4,12.0,30.11,West,261,0.0,0.0,86,0.00,,,0.00,weatherlink.com 1.10,2013-01-06 07:38:00,
2013-01-06 02:53:00,15.8,12.0,30.11,West,261,0.0,1.0,86,0.00,,,0.00,weatherlink.com 1.10,2013-01-06 07:53:00,
2013-01-06 03:08:00,15.8,12.0,30.11,West,261,0.0,1.0,86,0.00,,,0.00,weatherlink.com 1.10,2013-01-06 08:08:00,
2013-01-06 03:23:00,16.0,13.0,30.08,NNE,25,1.0,1.0,86,0.00,,,0.00,weatherlink.com 1.10,2013-01-06 08:23:00,
2013-01-06 03:38:00,16.6,13.0,30.06,North,3,0.0,4.0,85,0.00,,,0.00,weatherlink.com 1.10,2013-01-06 08:38:00,
2013-01-06 03:53:00,17.4,14.0,30.06,NNW,338,0.0,0.0,86,0.00,,,0.00,weatherlink.com 1.10,2013-01-06 08:53:00,
2013-01-06 04:08:00,17.8,14.0,30.05,West,273,0.0,0.0,85,0.00,,,0.00,weatherlink.com 1.10,2013-01-06 09:08:00,
2013-01-06 04:23:00,18.1,14.0,30.05,West,273,0.0,0.0,85,0.00,,,0.00,weatherlink.com 1.10,2013-01-06 09:23:00,
2013-01-06 04:38:00,18.4,14.0,30.03,West,273,0.0,1.0,84,0.00,,,0.00,weatherlink.com 1.10,2013-01-06 09:38:00,
2013-01-06 04:53:00,19.0,15.0,30.03,NW,311,0.0,1.0,85,0.00,,,0.00,weatherlink.com 1.10,2013-01-06 09:53:00,
2013-01-06 05:09:00,19.3,16.0,30.03,NW,311,0.0,0.0,85,0.00,,,0.00,weatherlink.com 1.10,2013-01-06 10:09:00,
2013-01-06 05:24:00,19.6,16.0,30.02,WNW,302,0.0,1.0,87,0.00,,,0.00,weatherlink.com 1.10,2013-01-06 10:24:00,
2013-01-06 05:39:00,19.8,17.0,30.01,WSW,258,0.0,1.0,89,0.00,,,0.00,weatherlink.com 1.10,2013-01-06 10:39:00,
2013-01-06 05:54:00,19.8,17.0,30.01,WSW,257,1.0,1.0,90,0.00,,,0.00,weatherlink.com 1.10,2013-01-06 10:54:00,
2013-01-06 06:09:00,22.1,20.0,30.01,SSW,213,0.0,7.0,93,0.00,,,0.00,weatherlink.com 1.10,2013-01-06 11:09:00,
2013-01-06 06:24:00,24.1,22.0,30.01,SW,215,8.0,8.0,91,0.00,,,0.00,weatherlink.com 1.10,2013-01-06 11:24:00,
2013-01-06 06:39:00,24.6,22.0,30.01,South,180,4.0,11.0,89,0.00,,,0.00,weatherlink.com 1.10,2013-01-06 11:39:00,
2013-01-06 06:54:00,24.6,22.0,30.01,South,178,5.0,11.0,88,0.00,,,0.00,weatherlink.com 1.10,2013-01-06 11:54:00,
2013-01-06 07:09:00,24.8,22.0,30.00,South,188,4.0,10.0,88,0.00,,,0.00,weatherlink.com 1.10,2013-01-06 12:09:00,
2013-01-06 07:24:00,25.1,22.0,30.00,SSW,207,3.0,7.0,88,0.00,,,0.00,weatherlink.com 1.10,2013-01-06 12:24:00,
2013-01-06 07:39:00,25.3,22.0,29.99,South,187,2.0,7.0,87,0.00,,,0.00,weatherlink.com 1.10,2013-01-06 12:39:00,
2013-01-06 07:54:00,25.6,22.0,29.99,SSW,200,3.0,9.0,87,0.00,,,0.00,weatherlink.com 1.10,2013-01-06 12:54:00,
2013-01-06 08:09:00,25.9,23.0,29.99,SW,219,2.0,8.0,87,0.00,,,0.00,weatherlink.com 1.10,2013-01-06 13:09:00,
2013-01-06 08:24:00,26.2,23.0,29.99,SSW,199,5.0,8.0,87,0.00,,,0.00,weatherlink.com 1.10,2013-01-06 13:24:00,
2013-01-06 08:39:00,26.4,23.0,29.99,SSW,207,1.0,8.0,88,0.00,,,0.00,weatherlink.com 1.10,2013-01-06 13:39:00,
2013-01-06 08:54:00,26.9,24.0,29.99,SSE,161,4.0,9.0,88,0.00,,,0.00,weatherlink.com 1.10,2013-01-06 13:54:00,
2013-01-06 09:09:00,27.4,24.0,29.99,SW,215,1.0,10.0,88,0.00,,,0.00,weatherlink.com 1.10,2013-01-06 14:09:00,
2013-01-06 09:24:00,27.8,24.0,29.99,SSW,205,1.0,9.0,87,0.00,,,0.00,weatherlink.com 1.10,2013-01-06 14:24:00,
2013-01-06 09:39:00,28.4,25.0,29.98,SSW,198,3.0,10.0,86,0.00,,,0.00,weatherlink.com 1.10,2013-01-06 14:39:00,
2013-01-06 09:54:00,29.0,25.0,29.98,SW,215,0.0,6.0,86,0.00,,,0.00,weatherlink.com 1.10,2013-01-06 14:54:00,
2013-01-06 10:09:00,29.7,25.0,29.97,SSW,202,5.0,9.0,84,0.00,,,0.00,weatherlink.com 1.10,2013-01-06 15:09:00,
2013-01-06 10:24:00,30.2,26.0,29.97,SW,229,2.0,9.0,83,0.00,,,0.00,weatherlink.com 1.10,2013-01-06 15:24:00,
2013-01-06 10:39:00,31.2,26.0,29.95,SSW,207,10.0,10.0,82,0.00,,,0.00,weatherlink.com 1.10,2013-01-06 15:39:00,
2013-01-06 10:54:00,31.7,26.0,29.95,SSW,209,0.0,11.0,80,0.00,,,0.00,weatherlink.com 1.10,2013-01-06 15:54:00,
2013-01-06 11:10:00,32.2,27.0,29.95,SSW,209,2.0,10.0,80,0.00,,,0.00,weatherlink.com 1.10,2013-01-06 16:10:00,
2013-01-06 11:25:00,33.2,27.0,29.94,SSW,197,4.0,11.0,78,0.00,,,0.00,weatherlink.com 1.10,2013-01-06 16:25:00,
2013-01-06 11:40:00,33.3,27.0,29.92,South,190,6.0,11.0,77,0.00,,,0.00,weatherlink.com 1.10,2013-01-06 16:40:00,
2013-01-06 11:55:00,34.5,27.0,29.92,SSW,207,3.0,9.0,75,0.00,,,0.00,weatherlink.com 1.10,2013-01-06 16:55:00,
2013-01-06 12:10:00,34.7,28.0,29.90,South,172,4.0,11.0,75,0.00,,,0.00,weatherlink.com 1.10,2013-01-06 17:10:00,
2013-01-06 12:25:00,34.8,27.0,29.90,South,190,4.0,8.0,74,0.00,,,0.00,weatherlink.com 1.10,2013-01-06 17:25:00,
2013-01-06 12:40:00,33.5,27.0,29.89,South,190,3.0,11.0,78,0.00,,,0.00,weatherlink.com 1.10,2013-01-06 17:40:00,
2013-01-06 12:55:00,33.5,27.0,29.89,SSW,207,12.0,12.0,78,0.00,,,0.00,weatherlink.com 1.10,2013-01-06 17:55:00,
2013-01-06 13:10:00,34.0,28.0,29.89,SSW,211,7.0,10.0,77,0.00,,,0.00,weatherlink.com 1.10,2013-01-06 18:10:00,
2013-01-06 13:25:00,34.0,27.0,29.89,South,180,8.0,12.0,76,0.00,,,0.00,weatherlink.com 1.10,2013-01-06 18:25:00,
2013-01-06 13:40:00,34.0,28.0,29.88,SSW,194,3.0,13.0,77,0.00,,,0.00,weatherlink.com 1.10,2013-01-06 18:40:00,
2013-01-06 13:55:00,33.9,27.0,29.88,SE,132,3.0,9.0,77,0.00,,,0.00,weatherlink.com 1.10,2013-01-06 18:55:00,
2013-01-06 14:10:00,34.1,28.0,29.88,South,190,4.0,12.0,77,0.00,,,0.00,weatherlink.com 1.10,2013-01-06 19:10:00,
2013-01-06 14:25:00,34.0,28.0,29.88,South,173,9.0,11.0,78,0.00,,,0.00,weatherlink.com 1.10,2013-01-06 19:25:00,
2013-01-06 14:40:00,34.0,28.0,29.88,South,191,4.0,14.0,77,0.00,,,0.00,weatherlink.com 1.10,2013-01-06 19:40:00,
2013-01-06 14:55:00,34.2,28.0,29.88,South,187,5.0,10.0,78,0.00,,,0.00,weatherlink.com 1.10,2013-01-06 19:55:00,
2013-01-06 15:10:00,34.2,28.0,29.88,SW,216,2.0,8.0,78,0.00,,,0.00,weatherlink.com 1.10,2013-01-06 20:10:00,
2013-01-06 15:25:00,34.2,28.0,29.88,South,180,4.0,8.0,78,0.00,,,0.00,weatherlink.com 1.10,2013-01-06 20:25:00,
2013-01-06 15:40:00,34.4,28.0,29.88,SSW,206,3.0,9.0,78,0.00,,,0.00,weatherlink.com 1.10,2013-01-06 20:40:00,
2013-01-06 15:55:00,34.8,29.0,29.88,SSW,199,3.0,9.0,78,0.00,,,0.00,weatherlink.com 1.10,2013-01-06 20:55:00,
2013-01-06 16:10:00,34.8,29.0,29.88,SSW,209,2.0,11.0,78,0.01,,,0.01,weatherlink.com 1.10,2013-01-06 21:10:00,
2013-01-06 16:25:00,34.5,29.0,29.88,SW,214,4.0,9.0,79,0.01,,,0.01,weatherlink.com 1.10,2013-01-06 21:25:00,
2013-01-06 16:40:00,34.1,28.0,29.88,SW,218,9.0,10.0,79,0.01,,,0.01,weatherlink.com 1.10,2013-01-06 21:40:00,
2013-01-06 16:55:00,33.9,28.0,29.88,SSW,203,2.0,10.0,80,0.01,,,0.01,weatherlink.com 1.10,2013-01-06 21:55:00,
2013-01-06 17:10:00,33.9,28.0,29.89,SSW,211,5.0,7.0,80,0.00,,,0.01,weatherlink.com 1.10,2013-01-06 22:10:00,
2013-01-06 17:25:00,33.9,28.0,29.89,SSW,206,1.0,9.0,80,0.00,,,0.01,weatherlink.com 1.10,2013-01-06 22:25:00,
2013-01-06 17:40:00,34.1,29.0,29.89,SW,221,9.0,10.0,80,0.00,,,0.01,weatherlink.com 1.10,2013-01-06 22:40:00,
2013-01-06 17:55:00,34.2,29.0,29.89,SW,215,7.0,15.0,80,0.00,,,0.01,weatherlink.com 1.10,2013-01-06 22:55:00,
2013-01-06 18:10:00,34.3,29.0,29.89,SSW,212,10.0,15.0,80,0.00,,,0.00,weatherlink.com 1.10,2013-01-06 23:10:00,
2013-01-06 18:25:00,34.4,29.0,29.90,SSW,207,9.0,13.0,80,0.00,,,0.00,weatherlink.com 1.10,2013-01-06 23:25:00,
2013-01-06 18:40:00,34.7,29.0,29.90,SSW,209,3.0,12.0,79,0.00,,,0.00,weatherlink.com 1.10,2013-01-06 23:40:00,
2013-01-06 18:55:00,34.8,29.0,29.90,SSW,205,4.0,12.0,80,0.00,,,0.00,weatherlink.com 1.10,2013-01-06 23:55:00,
2013-01-06 19:10:00,34.8,29.0,29.90,SSW,206,4.0,12.0,79,0.00,,,0.00,weatherlink.com 1.10,2013-01-07 00:10:00,
2013-01-06 19:25:00,34.9,29.0,29.90,South,189,6.0,9.0,79,0.00,,,0.00,weatherlink.com 1.10,2013-01-07 00:25:00,
2013-01-06 19:40:00,35.0,29.0,29.90,SSW,213,3.0,10.0,79,0.00,,,0.00,weatherlink.com 1.10,2013-01-07 00:40:00,
2013-01-06 19:55:00,34.7,29.0,29.90,SW,234,2.0,9.0,80,0.00,,,0.00,weatherlink.com 1.10,2013-01-07 00:55:00,
2013-01-06 20:10:00,34.4,29.0,29.90,SSW,199,4.0,10.0,80,0.00,,,0.00,weatherlink.com 1.10,2013-01-07 01:10:00,
2013-01-06 20:25:00,34.3,29.0,29.91,SW,215,1.0,6.0,81,0.00,,,0.00,weatherlink.com 1.10,2013-01-07 01:25:00,
2013-01-06 20:40:00,34.5,30.0,29.91,SSW,196,4.0,12.0,83,0.00,,,0.00,weatherlink.com 1.10,2013-01-07 01:40:00,
2013-01-06 20:55:00,34.5,30.0,29.91,SSW,213,0.0,7.0,84,0.00,,,0.00,weatherlink.com 1.10,2013-01-07 01:55:00,
2013-01-06 21:26:00,34.5,31.0,29.91,West,271,0.0,5.0,86,0.00,,,0.00,weatherlink.com 1.10,2013-01-07 02:26:00,
2013-01-06 21:40:00,33.9,30.0,29.92,NW,306,2.0,6.0,84,0.00,,,0.00,weatherlink.com 1.10,2013-01-07 02:40:00,
2013-01-06 21:55:00,29.6,27.0,29.93,NW,315,4.0,8.0,88,0.00,,,0.00,weatherlink.com 1.10,2013-01-07 02:55:00,
2013-01-06 22:10:00,27.9,25.0,29.93,NNW,334,4.0,6.0,89,0.00,,,0.00,weatherlink.com 1.10,2013-01-07 03:10:00,
2013-01-06 22:25:00,26.9,24.0,29.94,North,10,5.0,9.0,89,0.00,,,0.00,weatherlink.com 1.10,2013-01-07 03:25:00,
2013-01-06 22:40:00,25.8,23.0,29.95,NNW,340,2.0,7.0,89,0.00,,,0.00,weatherlink.com 1.10,2013-01-07 03:40:00,
2013-01-06 22:55:00,24.9,22.0,29.96,NNW,340,2.0,6.0,89,0.00,,,0.00,weatherlink.com 1.10,2013-01-07 03:55:00,
2013-01-06 23:11:00,24.1,21.0,29.96,North,353,2.0,6.0,89,0.00,,,0.00,weatherlink.com 1.10,2013-01-07 04:11:00,
2013-01-06 23:26:00,23.7,21.0,29.98,NNW,347,2.0,7.0,88,0.00,,,0.00,weatherlink.com 1.10,2013-01-07 04:26:00,
2013-01-06 23:41:00,23.4,20.0,29.98,NNW,343,0.0,5.0,88,0.00,,,0.00,weatherlink.com 1.10,2013-01-07 04:41:00,
2013-01-06 23:56:00,22.7,20.0,29.98,North,352,2.0,9.0,88,0.00,,,0.00,weatherlink.com 1.10,2013-01-07 04:56:00,